Location: Rock Island IL
(41.5000°N, 90.5500°W)
Time: 18:21:49
(UTC-06:00)

Amateur Radio Satellites - All Passes

Search period start: 24 November 2017 17:51
Search period end: 25 November 2017 17:51
Location: Rock Island IL, 41.5000°N, 90.5500°W

Satellite Date Start Highest point End Downlink Frequencies (MHz)
Time Altitude Azimuth
STARS 24 Nov 17:52:04 17:56:27 65° 102° (ESE) 18:00:46 437.465
KAITUO 1B 24 Nov 17:52:45 17:56:18 48° 261° (W) 17:59:55 145.475/437.950
UWE-3 24 Nov 18:09:20 18:12:51 24° 69° (ENE) 18:16:20 435.000/436.395/437.385
XW-2D 24 Nov 18:19:17 18:21:46 17° 267° (W) 18:24:14 145.860 - 145.880
nSIGHT-1 24 Nov 18:20:17 18:22:23 16° 132° (SE) 18:24:29 .
HO-68 24 Nov 18:27:00 18:34:12 76° 255° (WSW) 18:41:26 435.675
NUDT-PHONESAT 24 Nov 18:31:44 18:34:11 17° 267° (W) 18:36:41 437.300
XW-2B 24 Nov 18:35:29 18:36:53 12° 269° (W) 18:38:16 145.730 - 145.750
AO-73 24 Nov 18:39:24 18:42:45 23° 68° (ENE) 18:46:04 145.935
XW-2A 24 Nov 18:50:49 18:54:04 59° 76° (ENE) 18:57:21 145.665 - 145.685
Oscar 11 24 Nov 18:51:23 18:54:38 21° 67° (ENE) 18:57:54 .
CUTE 1.7 + AOD 2 24 Nov 18:55:33 18:59:21 33° 263° (W) 19:03:12 437.475
CUBEBUG 2 24 Nov 18:56:11 19:00:40 59° 260° (W) 19:05:02 437.445
NO-84 24 Nov 18:56:15 18:59:12 18° 20° (NNE) 19:02:12 435.350 FM
YUBILEINY 24 Nov 18:57:35 18:59:41 11° 288° (WNW) 19:01:48 435.215
STRAND 1 24 Nov 19:06:23 19:11:13 41° 98° (E) 19:16:01 437.568
AAUSAT CUBESAT 2 24 Nov 19:12:10 19:16:17 85° 258° (WSW) 19:20:28 437.432
ISS 24 Nov 19:16:00 19:19:10 47° 139° (SE) 19:22:20 437.550
SEEDS 24 Nov 19:18:17 19:21:59 31° 264° (W) 19:25:43 437.485
ZACube-1 24 Nov 19:25:54 19:30:12 87° 82° (E) 19:34:26 437.345
STARS 24 Nov 19:30:16 19:32:13 13° 298° (WNW) 19:34:09 437.465
SO-50 24 Nov 19:30:58 19:33:00 13° 108° (ESE) 19:35:03 436.795
RS-15 24 Nov 19:31:54 19:43:57 56° 313° (NW) 19:55:55 29.354- 29.394
UWE-3 24 Nov 19:45:17 19:49:11 30° 263° (W) 19:53:01 435.000/436.395/437.385
nSIGHT-1 24 Nov 19:55:08 19:58:19 56° 328° (NNW) 20:01:30 .
FO-29 24 Nov 20:12:34 20:20:09 52° 98° (E) 20:27:09 435.910
AO-73 24 Nov 20:15:05 20:18:50 30° 264° (W) 20:22:33 145.935
HO-68 24 Nov 20:20:20 20:23:00 12° 273° (W) 20:25:42 435.675
Oscar 11 24 Nov 20:26:40 20:30:34 34° 263° (W) 20:34:29 .
NO-84 24 Nov 20:33:00 20:37:13 64° 39° (NE) 20:41:27 435.350 FM
DELFI C3 24 Nov 20:40:03 20:43:59 68° 75° (ENE) 20:47:59 145.870
EO-88 24 Nov 20:44:15 20:47:32 33° 72° (ENE) 20:50:50 145.990 - 145.960
STRAND 1 24 Nov 20:46:04 20:50:09 25° 295° (WNW) 20:54:13 437.568
ISS 24 Nov 20:52:54 20:55:45 27° 337° (NNW) 20:58:37 437.550
Max Valier Satellite 24 Nov 20:55:07 20:58:45 71° 75° (ENE) 21:02:23 145.860
SO-50 24 Nov 21:08:26 21:12:52 67° 305° (NW) 21:17:22 436.795
O/OREOS (USA 219) 24 Nov 21:17:10 21:20:28 19° 55° (NE) 21:23:44 437.305
UNISAT 6 24 Nov 21:32:37 21:36:43 44° 99° (E) 21:40:47 437.425
nSIGHT-1 24 Nov 21:32:53 21:35:03 17° 347° (NNW) 21:37:14 .
TIGRISAT 24 Nov 21:35:49 21:39:54 43° 99° (E) 21:43:56 435.000
RS-15 24 Nov 21:50:21 22:00:01 25° 344° (NNW) 22:09:29 29.354- 29.394
FO-29 24 Nov 21:57:56 22:04:49 35° 297° (WNW) 22:11:18 435.910
NO-84 24 Nov 22:11:11 22:14:13 19° 235° (SW) 22:17:13 435.350 FM
ESTCUBE 1 24 Nov 22:15:40 22:19:55 44° 72° (ENE) 22:24:12 437.505/2401.250
EO-88 24 Nov 22:19:13 22:21:17 14° 268° (W) 22:23:21 145.990 - 145.960
LO-87 24 Nov 22:28:20 22:31:56 87° 79° (ENE) 22:35:33 145.935 - 145.965
ISS 24 Nov 22:31:12 22:33:03 14° 357° (N) 22:34:54 437.550
SPROUT 24 Nov 22:44:09 22:47:24 22° 67° (ENE) 22:50:40 437.525
AIST 2D 24 Nov 22:46:20 22:49:29 29° 97° (E) 22:52:36 435.315
QB50P2 24 Nov 22:47:30 22:48:59 12° 90° (E) 22:50:27 145.880/145.840
PRISM 24 Nov 22:51:30 22:55:40 71° 285° (WNW) 22:59:46 437.425
PCSat 24 Nov 22:52:24 22:57:29 44° 112° (ESE) 23:02:38 145.827
SO-50 24 Nov 22:52:33 22:54:12 12° 325° (NW) 22:55:51 436.795
O/OREOS (USA 219) 24 Nov 22:55:47 23:00:07 45° 253° (WSW) 23:04:24 437.305
nSIGHT-1 24 Nov 23:10:23 23:12:15 14° 7° (N) 23:14:07 .
UNISAT 6 24 Nov 23:10:23 23:13:04 16° 295° (WNW) 23:15:45 437.425
TIGRISAT 24 Nov 23:13:32 23:16:14 17° 295° (WNW) 23:18:55 435.000
DUCHIFAT 1 24 Nov 23:28:39 23:32:01 23° 95° (E) 23:35:22 145.980
EO-79 24 Nov 23:40:51 23:44:51 42° 99° (E) 23:48:49 145.935-145.965
NANOSAT C BR1 24 Nov 23:41:16 23:45:11 37° 98° (E) 23:49:03 145.865
VELOX 1 24 Nov 23:53:46 23:58:12 80° 75° (ENE) 00:02:40 145.980
ESTCUBE 1 24 Nov 23:53:58 23:56:56 17° 268° (W) 23:59:54 437.505/2401.250
POLYITAN 1 24 Nov 23:57:14 00:01:24 66° 101° (E) 00:05:34 437.675
BUGSAT 1 25 Nov 00:05:32 00:07:35 14° 92° (E) 00:09:36 437.445
ISS 25 Nov 00:07:57 00:10:27 20° 17° (NNE) 00:12:58 437.550
RS-15 25 Nov 00:08:21 00:18:06 27° 20° (NNE) 00:27:27 29.354- 29.394
SPROUT 25 Nov 00:19:12 00:23:05 33° 263° (W) 00:26:59 437.525
AIST 2D 25 Nov 00:20:08 00:22:24 16° 292° (WNW) 00:24:40 435.315
QB50P2 25 Nov 00:20:59 00:25:07 58° 286° (WNW) 00:29:13 145.880/145.840
Oscar 19 25 Nov 00:24:31 00:27:24 15° 91° (E) 00:30:17 437.125/150
DX 1 25 Nov 00:26:08 00:30:13 40° 70° (ENE) 00:34:19 434.975-435.025
50 SAT 25 Nov 00:34:32 00:37:39 49° 74° (ENE) 00:40:47 437.505
PCSat 25 Nov 00:36:21 00:41:02 29° 311° (NW) 00:45:45 145.827
nSIGHT-1 25 Nov 00:46:12 00:49:11 35° 27° (NNE) 00:52:09 .
BEESAT 3 25 Nov 00:57:33 01:00:59 28° 114° (ESE) 01:04:27 437.485
UKube-1 25 Nov 00:58:58 01:03:11 57° 73° (ENE) 01:07:26 .
DUCHIFAT 1 25 Nov 01:04:04 01:07:39 28° 291° (WNW) 01:11:12 145.980
EO-79 25 Nov 01:17:33 01:20:15 17° 295° (WNW) 01:22:57 145.935-145.965
NANOSAT C BR1 25 Nov 01:17:41 01:20:36 19° 294° (WNW) 01:23:30 145.865
Gurwin Techsat 1B 25 Nov 01:22:10 01:27:07 38° 98° (E) 01:32:02 435.225
AO-91 25 Nov 01:30:29 01:34:53 63° 101° (E) 01:38:46 145.960
POLYITAN 1 25 Nov 01:35:13 01:36:38 12° 298° (WNW) 01:38:02 437.675
BUGSAT 1 25 Nov 01:39:19 01:43:10 45° 288° (WNW) 01:46:59 437.445
MOZHAYETS 4 25 Nov 01:40:39 01:44:34 29° 68° (ENE) 01:48:29
ISS 25 Nov 01:44:01 01:47:18 89° 36° (NE) 01:50:34 437.550
BEESAT 25 Nov 01:55:58 02:00:14 34° 68° (ENE) 02:04:31 436.000
Oscar 19 25 Nov 02:02:02 02:07:10 66° 287° (WNW) 02:12:17 437.125/150
DX 1 25 Nov 02:03:29 02:06:33 18° 267° (W) 02:09:37 434.975-435.025
CUBESAT XI-V 25 Nov 02:05:44 02:07:48 13° 62° (ENE) 02:09:53 437.345
ITUPSAT 1 25 Nov 02:08:21 02:12:51 44° 70° (ENE) 02:17:23 437.325
BEESAT 2 25 Nov 02:18:48 02:22:46 62° 119° (ESE) 02:26:46 435.950
M-CUBED/EXP-1 PRIME 25 Nov 02:20:22 02:24:15 26° 100° (E) 02:28:08 437.505
RS-15 25 Nov 02:21:48 02:33:39 63° 50° (NE) 02:44:48 29.354- 29.394
nSIGHT-1 25 Nov 02:22:33 02:25:21 28° 224° (SW) 02:28:09 .
AO-85 25 Nov 02:25:44 02:28:51 24° 113° (ESE) 02:32:04 145.980
ITAMSAT 1 25 Nov 02:27:17 02:29:05 12° 89° (E) 02:30:52 435.822/435.867
BEESAT 3 25 Nov 02:35:01 02:38:28 27° 312° (NW) 02:41:56 437.485
UKube-1 25 Nov 02:37:35 02:39:32 13° 269° (W) 02:41:29 .
AO-7 25 Nov 02:54:05 03:01:46 39° 99° (E) 03:09:24 .
Gurwin Techsat 1B 25 Nov 03:02:25 03:06:53 28° 294° (WNW) 03:11:21 435.225
KKS-1 25 Nov 03:03:34 03:05:14 12° 61° (ENE) 03:06:55 437.445
AO-91 25 Nov 03:08:52 03:10:37 12° 300° (WNW) 03:12:18 145.960
MOZHAYETS 4 25 Nov 03:17:46 03:21:39 27° 264° (W) 03:25:34
ISS 25 Nov 03:22:56 03:23:17 10° 231° (SW) 03:23:37 437.550
BEESAT 25 Nov 03:34:03 03:38:00 26° 264° (W) 03:42:00 436.000
CUBESAT XI-V 25 Nov 03:39:59 03:44:33 70° 258° (WSW) 03:49:11 437.345
ITUPSAT 1 25 Nov 03:47:23 03:50:51 20° 266° (W) 03:54:20 437.325
M-CUBED/EXP-1 PRIME 25 Nov 03:54:25 03:58:35 35° 295° (WNW) 04:02:48 437.505
BEESAT 2 25 Nov 03:58:20 04:00:52 16° 318° (NW) 04:03:25 435.950
SO-50 25 Nov 03:59:54 04:02:59 17° 40° (NE) 04:06:05 436.795
YUBILEINY 25 Nov 04:01:38 04:08:59 32° 83° (E) 04:16:23 435.215
ITAMSAT 1 25 Nov 04:03:55 04:09:09 82° 286° (WNW) 04:14:20 435.822/435.867
AO-85 25 Nov 04:05:36 04:09:05 30° 312° (NW) 04:12:44 145.980
DOVE 4 25 Nov 04:32:55 04:37:39 38° 96° (E) 04:42:07 437.250
RS-15 25 Nov 04:35:02 04:45:28 40° 253° (WSW) 04:55:27 29.354- 29.394
KKS-1 25 Nov 04:36:41 04:41:09 74° 257° (WSW) 04:45:40 437.445
AO-7 25 Nov 04:46:42 04:54:38 50° 297° (WNW) 05:02:33 .
STARS 25 Nov 04:48:16 04:52:36 58° 73° (ENE) 04:56:58 437.465
XW-2C 25 Nov 04:59:25 05:00:00 10° 90° (E) 05:00:35 145.795 - 145.815
XW-2F 25 Nov 05:05:13 05:06:31 11° 91° (E) 05:07:48 145.980 - 146.000
LilacSat-2 25 Nov 05:05:41 05:07:45 14° 92° (E) 05:09:49 437.200
KAITUO 1B 25 Nov 05:24:22 05:26:39 15° 92° (E) 05:28:55 145.475/437.950
SO-50 25 Nov 05:39:18 05:43:57 76° 239° (WSW) 05:48:39 436.795
ITAMSAT 1 25 Nov 05:46:13 05:47:45 11° 303° (WNW) 05:49:17 435.822/435.867
XW-2D 25 Nov 05:49:52 05:53:33 45° 99° (E) 05:57:14 145.860 - 145.880
HO-68 25 Nov 05:55:49 06:00:59 21° 91° (E) 06:06:07 435.675
YUBILEINY 25 Nov 05:56:42 06:05:15 57° 283° (WNW) 06:13:57 435.215
NUDT-PHONESAT 25 Nov 06:00:02 06:03:33 38° 98° (E) 06:07:03 437.300
XW-2B 25 Nov 06:04:46 06:08:36 68° 102° (ESE) 06:12:24 145.730 - 145.750
CUTE-I 25 Nov 06:07:46 06:13:02 53° 100° (E) 06:18:13 437.470
DOVE 4 25 Nov 06:10:55 06:15:04 26° 294° (WNW) 06:19:03 437.250
STRAND 1 25 Nov 06:22:08 06:27:12 60° 72° (ENE) 06:32:17 437.568
FO-29 25 Nov 06:25:02 06:30:31 25° 58° (ENE) 06:36:23 435.910
STARS 25 Nov 06:27:13 06:29:17 13° 269° (W) 06:31:21 437.465
XW-2C 25 Nov 06:30:45 06:34:29 54° 286° (WNW) 06:38:13 145.795 - 145.815
XW-2F 25 Nov 06:37:11 06:40:52 48° 286° (WNW) 06:44:33 145.980 - 146.000
LilacSat-2 25 Nov 06:38:34 06:42:12 40° 287° (WNW) 06:45:49 437.200
CUTE 1.7 + AOD 2 25 Nov 06:39:40 06:43:41 38° 98° (E) 06:47:42 437.475
AO-7 25 Nov 06:42:54 06:45:24 12° 319° (NW) 06:47:52 .
CUBEBUG 2 25 Nov 06:47:07 06:50:37 26° 95° (E) 06:54:05 437.445
AAUSAT CUBESAT 2 25 Nov 06:55:14 06:57:39 15° 91° (E) 07:00:02 437.432
KAITUO 1B 25 Nov 06:57:16 07:00:44 35° 288° (WNW) 07:04:12 145.475/437.950
SEEDS 25 Nov 07:01:11 07:05:13 40° 98° (E) 07:09:13 437.485
ZACube-1 25 Nov 07:14:59 07:17:30 15° 92° (E) 07:20:02 437.345
XW-2D 25 Nov 07:25:27 07:27:19 13° 295° (WNW) 07:29:11 145.860 - 145.880
UWE-3 25 Nov 07:33:54 07:37:56 49° 99° (E) 07:41:58 435.000/436.395/437.385
NUDT-PHONESAT 25 Nov 07:35:00 07:37:03 14° 294° (WNW) 07:39:07 437.300
PCSat 25 Nov 07:39:57 07:45:00 38° 52° (NE) 07:50:01 145.827
HO-68 25 Nov 07:42:09 07:49:19 73° 290° (WNW) 07:56:26 435.675
XW-2A 25 Nov 07:44:23 07:47:44 62° 102° (ESE) 07:51:05 145.665 - 145.685
CUTE-I 25 Nov 07:48:42 07:52:39 21° 297° (WNW) 07:56:36 437.470
FALCONSAT 3 25 Nov 07:50:46 07:53:27 19° 162° (SSE) 07:56:09 435.103
AO-73 25 Nov 08:01:56 08:05:57 46° 99° (E) 08:09:59 145.935
YUBILEINY 25 Nov 08:02:26 08:04:22 11° 307° (NW) 08:06:19 435.215
STRAND 1 25 Nov 08:03:34 08:06:46 16° 269° (W) 08:09:57 437.568
FO-29 25 Nov 08:07:58 08:14:44 71° 259° (W) 08:22:21 435.910
Oscar 11 25 Nov 08:13:09 08:17:15 41° 98° (E) 08:21:22 .
CUTE 1.7 + AOD 2 25 Nov 08:16:13 08:19:14 19° 294° (WNW) 08:22:15 437.475
CUBEBUG 2 25 Nov 08:23:45 08:27:09 25° 291° (WNW) 08:30:33 437.445
AAUSAT CUBESAT 2 25 Nov 08:29:18 08:33:18 45° 287° (WNW) 08:37:17 437.432
UNISAT 6 25 Nov 08:31:08 08:35:22 40° 72° (ENE) 08:39:32 437.425
TIGRISAT 25 Nov 08:34:11 08:38:25 40° 71° (ENE) 08:42:33 435.000
SEEDS 25 Nov 08:37:41 08:40:34 18° 294° (WNW) 08:43:26 437.485
ZACube-1 25 Nov 08:50:03 08:53:59 42° 287° (WNW) 08:57:57 437.345
UWE-3 25 Nov 09:11:45 09:13:58 14° 296° (WNW) 09:16:13 435.000/436.395/437.385
BEESAT 3 25 Nov 09:13:55 09:16:53 20° 45° (NE) 09:19:48 437.485
AIST 2D 25 Nov 09:22:15 09:23:29 12° 66° (ENE) 09:24:44 435.315
PCSat 25 Nov 09:23:31 09:28:17 32° 250° (WSW) 09:33:01 145.827
FALCONSAT 3 25 Nov 09:28:45 09:32:03 31° 177° (S) 09:35:21 435.103
HO-68 25 Nov 09:32:08 09:35:50 15° 309° (NW) 09:39:30 435.675
AO-73 25 Nov 09:39:22 09:41:48 15° 295° (WNW) 09:44:16 145.935
PRISM 25 Nov 09:40:09 09:44:16 80° 77° (ENE) 09:48:27 437.425
EO-88 25 Nov 09:45:37 09:49:08 43° 99° (E) 09:52:37 145.990 - 145.960
Oscar 11 25 Nov 09:50:06 09:53:04 18° 294° (WNW) 09:56:03 .
DELFI C3 25 Nov 09:51:06 09:55:06 73° 284° (WNW) 09:59:03 145.870
Max Valier Satellite 25 Nov 09:58:11 10:01:52 84° 283° (WNW) 10:05:34 145.860
FO-29 25 Nov 09:59:07 10:01:13 11° 279° (W) 10:03:23 435.910
UNISAT 6 25 Nov 10:09:00 10:12:12 19° 267° (W) 10:15:22 437.425
TIGRISAT 25 Nov 10:11:59 10:15:13 19° 267° (W) 10:18:25 435.000
DUCHIFAT 1 25 Nov 10:20:48 10:23:43 19° 66° (ENE) 10:26:38 145.980
EO-79 25 Nov 10:33:08 10:36:54 32° 70° (ENE) 10:40:40 145.935-145.965
NANOSAT C BR1 25 Nov 10:33:18 10:36:55 29° 69° (ENE) 10:40:33 145.865
BEESAT 2 25 Nov 10:36:14 10:40:01 37° 51° (NE) 10:43:44 435.950
POLYITAN 1 25 Nov 10:49:26 10:53:31 48° 73° (ENE) 10:57:36 437.675
BEESAT 3 25 Nov 10:50:52 10:54:36 41° 243° (WSW) 10:58:14 437.485
AIST 2D 25 Nov 10:52:59 10:56:15 41° 261° (W) 10:59:35 435.315
AO-85 25 Nov 10:55:07 10:59:12 29° 48° (NE) 11:03:32 145.980
BUGSAT 1 25 Nov 10:56:22 10:57:37 11° 62° (ENE) 10:58:52 437.445
FALCONSAT 3 25 Nov 11:07:38 11:10:41 24° 193° (SSW) 11:13:44 435.103
QB50P2 25 Nov 11:12:59 11:17:14 80° 257° (WSW) 11:21:29 145.880/145.840
EO-88 25 Nov 11:20:44 11:22:22 13° 295° (WNW) 11:24:00 145.990 - 145.960
LO-87 25 Nov 11:28:03 11:31:36 76° 282° (WNW) 11:35:06 145.935 - 145.965
O/OREOS (USA 219) 25 Nov 11:29:54 11:33:13 20° 101° (E) 11:36:34 437.305
Oscar 19 25 Nov 11:41:08 11:45:06 23° 64° (ENE) 11:49:04 437.125/150
ESTCUBE 1 25 Nov 11:44:09 11:48:43 84° 283° (WNW) 11:53:16 437.505/2401.250
VELOX 1 25 Nov 11:44:57 11:47:28 15° 91° (E) 11:49:58 145.980
DUCHIFAT 1 25 Nov 11:55:09 11:59:05 38° 262° (W) 12:03:01 145.980
SPROUT 25 Nov 12:04:09 12:08:07 37° 98° (E) 12:12:02 437.525
AO-7 25 Nov 12:06:52 12:10:03 13° 43° (NE) 12:13:14 .
NANOSAT C BR1 25 Nov 12:09:10 12:12:36 24° 265° (W) 12:16:02 145.865
EO-79 25 Nov 12:09:26 12:12:41 21° 266° (W) 12:15:57 145.935-145.965
BEESAT 2 25 Nov 12:14:33 12:17:28 20° 249° (WSW) 12:20:21 435.950
AO-91 25 Nov 12:25:35 12:30:52 57° 73° (ENE) 12:36:04 145.960
POLYITAN 1 25 Nov 12:27:17 12:29:33 14° 268° (W) 12:31:49 437.675
BUGSAT 1 25 Nov 12:28:15 12:32:24 68° 258° (WSW) 12:36:32 437.445
AO-85 25 Nov 12:35:15 12:39:42 40° 244° (WSW) 12:44:26 145.980
Gurwin Techsat 1B 25 Nov 12:43:12 12:48:26 62° 73° (ENE) 12:53:42 435.225
M-CUBED/EXP-1 PRIME 25 Nov 13:06:13 13:09:23 27° 63° (ENE) 13:12:46 437.505
O/OREOS (USA 219) 25 Nov 13:07:58 13:12:19 41° 298° (WNW) 13:16:41 437.305
Oscar 19 25 Nov 13:19:15 13:24:07 44° 261° (W) 13:29:01 437.125/150
VELOX 1 25 Nov 13:19:52 13:24:11 51° 288° (WNW) 13:28:29 145.980
50 SAT 25 Nov 13:23:14 13:26:16 38° 99° (E) 13:29:16 437.505
NO-84 25 Nov 13:24:38 13:28:06 61° 134° (SE) 13:31:53 435.350 FM
SPROUT 25 Nov 13:40:43 13:43:43 19° 294° (WNW) 13:46:42 437.525
ITAMSAT 1 25 Nov 13:44:20 13:48:08 21° 63° (ENE) 13:51:57 435.822/435.867
DX 1 25 Nov 13:49:43 13:54:06 74° 102° (ESE) 13:58:27 434.975-435.025
AO-7 25 Nov 13:53:00 14:00:57 54° 64° (ENE) 14:08:58 .
AO-91 25 Nov 14:03:41 14:07:32 20° 269° (W) 14:11:23 145.960
ITUPSAT 1 25 Nov 14:11:33 14:12:19 10° 89° (E) 14:13:05 437.325
YUBILEINY 25 Nov 14:11:57 14:16:47 15° 58° (ENE) 14:21:36 435.215
UKube-1 25 Nov 14:21:23 14:25:44 80° 287° (WNW) 14:30:02 .
Gurwin Techsat 1B 25 Nov 14:25:27 14:28:47 17° 269° (W) 14:32:08 435.225
M-CUBED/EXP-1 PRIME 25 Nov 14:40:52 14:43:46 22° 261° (W) 14:46:52 437.505
50 SAT 25 Nov 14:57:18 14:57:56 10° 295° (WNW) 14:58:34 437.505
NO-84 25 Nov 15:02:41 15:05:44 23° 335° (NNW) 15:08:58 435.350 FM
MOZHAYETS 4 25 Nov 15:11:32 15:16:06 66° 101° (ESE) 15:20:39
ITAMSAT 1 25 Nov 15:22:06 15:27:11 53° 260° (W) 15:32:19 435.822/435.867
DX 1 25 Nov 15:28:14 15:29:39 11° 299° (WNW) 15:31:04 434.975-435.025
BEESAT 25 Nov 15:32:47 15:37:34 78° 103° (ESE) 15:42:18 436.000
CUBESAT XI-V 25 Nov 15:36:31 15:40:35 28° 95° (E) 15:44:38 437.345
DOVE 4 25 Nov 15:37:25 15:42:10 39° 70° (ENE) 15:47:05 437.250
ITUPSAT 1 25 Nov 15:45:55 15:50:42 80° 284° (WNW) 15:55:26 437.325
AO-7 25 Nov 15:46:37 15:53:57 35° 263° (W) 16:01:22 .
CUTE-I 25 Nov 15:53:35 15:55:43 12° 58° (ENE) 15:57:53 437.470
YUBILEINY 25 Nov 16:06:25 16:15:19 74° 81° (E) 16:24:07 435.215
HO-68 25 Nov 16:26:09 16:30:35 18° 54° (NE) 16:35:01 435.675
KKS-1 25 Nov 16:28:11 16:31:30 20° 94° (E) 16:34:47 437.445
XW-2D 25 Nov 16:31:28 16:34:23 22° 69° (ENE) 16:37:20 145.860 - 145.880
NUDT-PHONESAT 25 Nov 16:39:41 16:42:13 18° 68° (ENE) 16:44:45 437.300
NO-84 25 Nov 16:42:37 16:44:19 12° 356° (N) 16:46:01 435.350 FM
RS-15 25 Nov 16:45:00 16:55:49 39° 106° (ESE) 17:06:36 29.354- 29.394
XW-2B 25 Nov 16:46:01 16:49:20 31° 71° (ENE) 16:52:41 145.730 - 145.750
MOZHAYETS 4 25 Nov 16:50:28 16:52:41 14° 298° (WNW) 16:54:55
XW-2C 25 Nov 17:11:30 17:15:12 68° 76° (ENE) 17:18:56 145.795 - 145.815
BEESAT 25 Nov 17:12:41 17:14:40 13° 300° (WNW) 17:16:39 436.000
CUBESAT XI-V 25 Nov 17:13:49 17:17:53 30° 291° (WNW) 17:21:58 437.345
DOVE 4 25 Nov 17:15:38 17:19:54 26° 267° (W) 17:24:18 437.250
XW-2F 25 Nov 17:17:24 17:21:05 75° 76° (ENE) 17:24:49 145.980 - 146.000
LilacSat-2 25 Nov 17:19:50 17:23:35 86° 256° (WSW) 17:27:23 437.200
CUTE-I 25 Nov 17:29:33 17:34:56 86° 75° (ENE) 17:40:21 437.470
CUTE 1.7 + AOD 2 25 Nov 17:32:27 17:36:01 27° 69° (ENE) 17:39:36 437.475
KAITUO 1B 25 Nov 17:36:25 17:40:05 81° 261° (W) 17:43:48 145.475/437.950
AAUSAT CUBESAT 2 25 Nov 17:47:06 17:47:58 11° 62° (ENE) 17:48:49 437.432
